Location: Unspecified
(0.0000°N, 0.0000°E)
Time: 12:09:41
(UTC+00:00)

Explorer 7 - Visible Passes

Search period start: 26 July 2016 00:00
Search period end: 05 August 2016 00:00
Orbit: 486 x 687 km, 50.3° (Epoch: 26 July)

Date Brightness Start Highest point End Pass type
(mag) Time Alt. Az. Time Alt. Az. Time Alt. Az.
02 Aug 8.6 19:02:27 10° S 19:04:26 17° SE 19:04:26 17° SE visible
03 Aug 7.4 19:07:41 10° SSW 19:11:37 37° SE 19:13:33 25° ENE visible
03 Aug 10.1 20:49:44 10° W 20:50:12 11° W 20:50:12 11° W visible
04 Aug 6.8 19:13:39 10° SW 19:17:53 84° SE 19:22:25 10° NE visible
